1507186800.82,56271,12.69,73170.0,-0.53,-1.55,-1.33,0,*61
1507186802.0,56272,12.69,73174.5,-0.53,-1.51,-1.29,0,*6D
1507186803.22,56273,12.69,73178.8,-0.53,-1.39,-1.17,0,*6F
1507186804.46,56274,12.69,73180.8,-0.51,-1.29,-1.13,0,*6F
1507186805.7,56275,12.69,73178.8,-0.51,-1.35,-1.25,0,*66
1507186806.94,56276,12.69,73176.0,-0.51,-1.35,-1.25,0,*65
1507186808.15,56277,12.69,73172.3,-0.51,-1.29,-1.25,0,*69
1507186809.4,56278,12.69,73170.8,-0.51,-1.39,-1.29,0,*6B
1507186810.65,56279,12.69,73178.8,-0.49,-1.47,-1.47,0,*62
1507186811.88,56280,12.69,73184.5,-0.51,-1.59,-1.47,0,*62
1507186813.08,56281,12.69,73188.0,-0.49,-1.75,-1.75,0,*65
1507186814.35,56282,12.69,73178.3,-0.51,-2.07,-1.99,0,*6B
1507186815.6,56283,12.69,73170.3,-0.49,-1.99,-1.99,0,*67
1507186816.87,56284,12.69,73166.0,-0.51,-2.07,-2.07,0,*69
1507186818.15,56285,12.69,73156.0,-0.51,-2.11,-1.99,0,*6B
1507186819.4,56286,12.69,73150.5,-0.49,-1.99,-1.87,0,*6D
1507186820.62,56287,12.69,73136.5,-0.49,-1.95,-1.75,0,*6D
1507186821.85,56288,12.69,73136.8,-0.49,-1.95,-1.95,0,*6C
1507186823.1,56289,12.69,73142.0,-0.49,-1.99,-1.95,0,*61
1507186824.35,56290,12.69,73146.8,-0.49,-1.99,-1.87,0,*6A
1507186825.59,56291,12.69,73154.5,-0.49,-2.07,-2.07,0,*64
1507186826.84,56292,12.69,73160.8,-0.49,-2.11,-2.11,0,*67
1507186828.04,56293,12.69,73158.0,-0.49,-2.23,-2.15,0,*63
1507186829.23,56294,12.69,73162.3,-0.49,-2.35,-2.23,0,*66
1507186830.45,56295,12.69,73162.3,-0.47,-2.35,-2.23,0,*69
1507186831.66,56296,12.69,73164.8,-0.47,-2.35,-2.19,0,*63
1507186832.9,56297,12.69,73160.5,-0.47,-2.59,-2.31,0,*62
1507186834.12,56298,12.69,73160.8,-0.49,-2.47,-2.15,0,*6A
1507186835.34,56299,12.69,73156.8,-0.49,-2.83,-2.63,0,*62
1507186836.53,56300,12.69,73144.8,-0.49,-3.11,-2.83,0,*67
1507186837.74,56301,12.69,73144.0,-0.51,-2.91,-2.83,0,*66
1507186838.98,56302,12.69,73140.5,-0.51,-2.91,-2.71,0,*68
1507186840.26,56303,12.69,73148.3,-0.51,-2.63,-2.51,0,*66
1507186841.48,56304,12.69,73160.3,-0.53,-2.79,-2.63,0,*69
1507186842.69,56305,12.69,73162.3,-0.53,-2.51,-2.27,0,*62
1507186843.96,56306,12.69,73154.5,-0.55,-2.11,-2.03,0,*65
1507186845.2,56307,12.69,73134.3,-0.53,-2.51,-2.51,0,*61
1507186846.46,56308,12.69,73134.0,-0.55,-2.67,-2.67,0,*68
1507186847.73,56309,12.69,73146.5,-0.55,-2.55,-2.75,0,*6B
1507186848.97,56310,12.69,73142.3,-0.55,-2.43,-2.55,0,*66
1507186850.23,56311,12.69,73140.3,-0.55,-2.55,-2.67,0,*61
1507186851.42,56312,12.69,73142.5,-0.57,-2.83,-2.99,0,*6A
1507186852.62,56313,12.69,73140.5,-0.57,-2.95,-3.07,0,*6A
1507186853.83,56314,12.69,73142.3,-0.59,-2.83,-2.91,0,*6A
1507186855.1,56315,12.69,73140.5,-0.59,-2.71,-2.55,0,*6E
1507186856.34,56316,12.69,73156.8,-0.57,-2.67,-2.55,0,*64
1507186857.56,56317,12.69,73148.3,-0.59,-3.11,-2.95,0,*67
1507186858.78,56318,12.69,73136.5,-0.59,-3.23,-2.99,0,*65
1507186860.0,56319,12.69,73144.5,-0.59,-3.35,-3.11,0,*62
1507186861.21,56320,12.69,73140.3,-0.59,-3.23,-3.11,0,*6F
1507186862.43,56321,12.69,73146.8,-0.63,-3.27,-3.15,0,*67
1507186863.61,56322,12.69,73144.5,-0.61,-3.23,-3.35,0,*60
1507186864.8,56323,12.69,73144.0,-0.61,-2.99,-3.11,0,*67
1507186866.02,56324,12.69,73138.5,-0.63,-3.15,-3.35,0,*61
1507186867.23,56325,12.69,73142.3,-0.63,-3.03,-3.11,0,*61
1507186868.47,56326,12.69,73136.5,-0.63,-2.83,-2.75,0,*68
1507186869.71,56327,12.69,73142.0,-0.61,-2.59,-2.63,0,*6B
1507186870.91,56328,12.69,73144.3,-0.61,-2.87,-2.95,0,*6E
1507186872.09,56329,12.69,73146.8,-0.61,-3.03,-3.03,0,*6C
1507186873.28,56330,12.69,73146.8,-0.61,-2.83,-2.83,0,*64
1507186874.49,56331,12.69,73154.8,-0.63,-2.87,-3.11,0,*69
1507186875.71,56332,12.69,73148.5,-0.63,-2.99,-3.27,0,*60
1507186876.91,56333,12.69,73144.5,-0.61,-3.23,-3.63,0,*63
1507186878.13,56334,12.69,73134.8,-0.61,-3.63,-4.41,0,*67
1507186879.37,56335,12.69,73132.8,-0.63,-4.37,-5.15,0,*62
1507186880.62,56336,12.69,73150.5,-0.63,-4.29,-5.19,0,*62
1507186881.87,56337,12.69,73160.8,-0.67,-4.33,-5.31,0,*66
1507186883.11,56338,12.69,73166.0,-0.63,-5.19,-6.31,0,*67
1507186884.33,56339,12.69,73162.5,-0.67,-5.47,-6.51,0,*6F
1507186885.58,56340,12.69,73160.8,-0.67,-5.19,-6.55,0,*6E
1507186886.84,56341,12.69,73162.3,-0.67,-5.77,-7.69,0,*69
1507186888.02,56342,12.69,73148.0,-0.69,-6.47,-8.59,0,*68
1507186889.24,56343,12.69,73146.3,-0.69,-7.23,-9.41,0,*62
1507186890.48,56344,12.69,73136.3,-0.71,-7.87,-9.61,0,*60
1507186891.72,56345,12.69,73134.5,-0.71,-8.41,-9.53,0,*65
1507186892.99,56346,12.69,73136.8,-0.71,-9.11,-9.53,0,*62
1507186894.23,56347,12.69,73146.0,-0.71,-9.79,-9.49,0,*66
1507186895.45,56348,12.69,73146.5,-0.69,-10.35,-9.61,0,*5A
1507186896.73,56349,12.69,73148.3,-0.71,-10.63,-9.37,0,*52
1507186897.97,56350,12.69,73140.3,-0.71,-10.79,-8.71,0,*52
1507186899.21,56351,12.69,73140.8,-0.71,-10.71,-7.87,0,*5D
1507186900.44,56352,12.69,73140.8,-0.71,-10.19,-6.85,0,*53
1507186901.67,56353,12.69,73142.3,-0.73,-9.57,-6.19,0,*67
1507186902.9,56354,12.69,73134.8,-0.69,-8.81,-5.69,0,*65
1507186904.13,56355,12.69,73134.5,-0.69,-8.11,-5.55,0,*62
1507186905.31,56356,12.69,73124.3,-0.69,-7.49,-5.47,0,*60
1507186906.53,56357,12.69,73130.3,-0.69,-6.93,-5.35,0,*62
1507186907.72,56358,12.69,73132.8,-0.69,-6.69,-5.47,0,*6D
1507186908.95,56359,12.69,73140.8,-0.67,-6.69,-5.65,0,*62
1507186910.17,56360,12.69,73156.0,-0.69,-6.73,-5.77,0,*6E
1507186911.4,56361,12.69,73154.3,-0.67,-7.05,-5.97,0,*6F
1507186912.62,56362,12.69,73160.5,-0.69,-7.19,-5.69,0,*6E
1507186913.84,56363,12.69,73168.8,-0.69,-6.85,-5.15,0,*60
1507186915.05,56364,12.69,73178.5,-0.69,-6.69,-4.77,0,*60
1507186916.26,56365,12.69,73176.8,-0.69,-6.69,-4.85,0,*6C
1507186917.48,56366,12.69,73178.0,-0.67,-5.97,-4.09,0,*67
1507186918.66,56367,12.69,73166.0,-0.69,-5.35,-3.95,0,*62
1507186919.89,56368,12.69,73152.5,-0.69,-4.77,-3.71,0,*60
1507186921.12,56369,12.69,73136.3,-0.67,-4.53,-3.67,0,*6E
1507186922.32,56370,12.69,73146.0,-0.67,-4.45,-3.79,0,*6E
1507186923.54,56371,12.69,73148.5,-0.69,-4.21,-3.59,0,*61
1507186924.76,56372,12.69,73142.3,-0.63,-4.29,-3.75,0,*6E
1507186925.98,56373,12.69,73142.8,-0.67,-4.41,-3.75,0,*65
1507186927.21,56374,12.69,73142.8,-0.67,-4.41,-3.67,0,*61
1507186928.44,56375,12.69,73152.0,-0.67,-4.41,-3.51,0,*65
1507186929.68,56376,12.69,73128.8,-0.67,-4.81,-3.95,0,*62
1507186930.9,56377,12.69,73120.3,-0.67,-4.45,-3.67,0,*66
1507186932.14,56378,12.69,73106.5,-0.67,-4.41,-3.67,0,*6D
1507186933.37,56379,12.69,73106.8,-0.63,-4.49,-4.01,0,*67
1507186934.59,56380,12.69,73092.3,-0.61,-5.47,-4.77,0,*6D
1507186935.83,56381,12.69,73092.8,-0.63,-6.73,-5.27,0,*6E
1507186937.08,56382,12.69,73078.8,-0.63,-7.19,-5.15,0,*61
1507186938.36,56383,12.69,73046.8,-0.63,-7.43,-5.07,0,*6C
1507186939.6,56384,12.69,73026.0,-0.61,-7.65,-4.81,0,*62
1507186940.87,56385,12.69,73040.8,-0.63,-7.65,-4.77,0,*68
1507186942.08,56386,12.69,73052.0,-0.67,-7.49,-4.53,0,*67
1507186943.33,56387,12.69,73064.0,-0.67,-7.05,-4.21,0,*6B
1507186944.55,56388,12.69,73094.8,-0.67,-6.81,-3.95,0,*61
1507186945.79,56389,12.69,73102.8,-0.67,-6.51,-3.67,0,*60
1507186947.05,56390,12.69,73134.0,-0.67,-6.23,-3.43,0,*6B
1507186948.24,56391,12.69,73124.0,-0.69,-5.55,-3.19,0,*69
1507186949.45,56392,12.69,73122.8,-0.69,-5.15,-3.07,0,*61
1507186950.66,56393,12.69,73146.8,-0.69,-4.69,-3.03,0,*6E
1507186951.84,56394,12.69,73154.8,-0.69,-4.45,-3.03,0,*67
1507186953.03,56395,12.69,73154.0,-0.69,-4.21,-2.79,0,*68
1507186954.26,56396,12.69,73156.5,-0.69,-3.83,-2.55,0,*6A
1507186955.45,56397,12.69,73158.0,-0.69,-3.35,-2.27,0,*63
1507186956.67,56398,12.69,73148.5,-0.67,-2.99,-2.15,0,*64
1507186957.88,56399,12.69,73134.3,-0.67,-2.91,-2.23,0,*68
1507186959.09,56400,12.69,73124.5,-0.67,-2.87,-2.27,0,*6C
1507186960.31,56401,12.69,73130.3,-0.67,-2.87,-2.43,0,*6F
1507186961.55,56402,12.69,73100.8,-0.67,-2.91,-2.63,0,*69
1507186962.76,56403,12.69,73098.5,-0.67,-3.03,-2.87,0,*68
1507186964.01,56404,12.69,73124.3,-0.67,-2.87,-2.67,0,*6C
1507186965.25,56405,12.69,73136.8,-0.69,-2.67,-2.47,0,*6F
1507186966.43,56406,12.69,73142.0,-0.69,-2.43,-2.27,0,*6C
1507186967.65,56407,12.69,73148.5,-0.67,-2.39,-2.31,0,*69
1507186968.87,56408,12.69,73146.5,-0.67,-2.31,-2.31,0,*6E
1507186970.11,56409,12.69,73148.8,-0.67,-2.51,-2.39,0,*61
1507186971.38,56410,12.69,73146.8,-0.63,-2.47,-2.51,0,*64
1507186972.62,56411,12.69,73154.0,-0.61,-2.59,-2.59,0,*60
1507186973.83,56412,12.69,73154.8,-0.63,-2.83,-2.87,0,*65
1507186975.04,56413,12.69,73152.8,-0.63,-3.15,-3.23,0,*65
1507186976.31,56414,12.69,73136.3,-0.67,-3.63,-3.63,0,*63
1507186977.56,56415,12.69,73118.3,-0.67,-3.55,-3.51,0,*66
1507186978.75,56416,12.69,73120.5,-0.69,-2.83,-2.79,0,*6A
1507186980.01,56417,12.69,73126.8,-0.67,-2.67,-2.55,0,*61
1507186981.23,56418,12.69,73128.3,-0.69,-2.83,-2.71,0,*6C
1507186982.42,56419,12.69,73128.5,-0.69,-2.95,-2.83,0,*67
1507186983.61,56420,12.69,73140.5,-0.69,-3.07,-3.03,0,*6E
1507186984.83,56421,12.69,73140.5,-0.69,-2.79,-2.71,0,*63
1507186986.04,56422,12.69,73146.5,-0.69,-2.83,-2.71,0,*65
1507186987.22,56423,12.69,73152.8,-0.69,-2.91,-2.83,0,*6A
1507186988.41,56424,12.69,73156.8,-0.69,-2.91,-2.95,0,*6A
1507186989.6,56425,12.69,73146.5,-0.69,-3.07,-3.11,0,*68
1507186990.79,56426,12.69,73156.5,-0.69,-3.31,-3.31,0,*6C
1507186992.05,56427,12.69,73158.8,-0.71,-3.43,-3.43,0,*64
1507186993.24,56428,12.69,73166.3,-0.73,-3.75,-3.75,0,*69
1507186994.48,56429,12.69,73160.3,-0.73,-3.51,-3.51,0,*68
1507186995.67,56430,12.69,73140.0,-0.73,-3.39,-3.39,0,*60
1507186996.9,56431,12.69,73136.0,-0.73,-3.63,-3.63,0,*61
1507186998.11,56432,12.69,73134.0,-0.73,-3.43,-3.39,0,*6F
1507186999.29,56433,12.69,73134.5,-0.77,-3.11,-3.19,0,*6F
1507187000.48,56434,12.69,73132.0,-0.77,-3.19,-3.39,0,*62
1507187001.71,56435,12.69,73128.0,-0.77,-3.43,-3.55,0,*66
1507187002.94,56436,12.69,73142.5,-0.77,-3.43,-3.55,0,*65
1507187004.21,56437,12.69,73150.8,-0.79,-3.43,-3.51,0,*6E
1507187005.4,56438,12.69,73124.5,-0.77,-3.31,-3.31,0,*6C
1507187006.66,56439,12.69,73152.8,-0.79,-3.63,-3.51,0,*62
1507187007.85,56440,12.69,73150.8,-0.81,-3.11,-3.11,0,*6A
1507187009.05,56441,12.69,73138.0,-0.77,-3.39,-3.27,0,*6D
1507187010.26,56442,12.69,73138.8,-0.79,-3.39,-3.31,0,*67
1507187011.46,56443,12.69,73146.3,-0.81,-3.15,-3.03,0,*6E
1507187012.65,56444,12.69,73166.5,-0.81,-3.31,-3.07,0,*6B
1507187013.85,56445,12.69,73146.0,-0.81,-3.35,-3.19,0,*61
1507187015.04,56446,12.69,73116.0,-0.81,-3.31,-3.19,0,*66
1507187016.26,56447,12.69,73118.3,-0.81,-3.91,-3.59,0,*69
1507187017.51,56448,12.69,73104.5,-0.83,-3.59,-3.15,0,*68
1507187018.74,56449,12.69,73108.3,-0.85,-3.23,-2.71,0,*61
1507187019.96,56450,12.69,73128.8,-0.83,-2.91,-2.39,0,*6B
1507187021.21,56451,12.69,73114.0,-0.83,-2.71,-2.31,0,*6C
1507187022.43,56452,12.69,73104.0,-0.83,-2.83,-2.39,0,*6A
1507187023.64,56453,12.69,73116.3,-0.83,-2.79,-2.27,0,*61
1507187024.92,56454,12.69,73140.8,-0.83,-2.47,-2.03,0,*6D
1507187026.18,56455,12.69,73126.3,-0.83,-1.39,-0.93,0,*5D
1507187027.4,56456,12.69,73120.8,-0.81,-1.63,-1.35,0,*6E
1507187028.64,56457,12.69,73152.0,-0.79,-1.87,-1.55,0,*64
1507187029.88,56458,12.69,73146.0,-0.79,-2.23,-1.99,0,*66
1507187031.1,56459,12.69,73142.5,-0.79,-1.79,-1.63,0,*6E
1507187032.31,56460,12.69,73136.8,-0.79,-1.55,-1.55,0,*6F
1507187033.55,56461,12.69,73136.0,-0.79,-1.51,-1.47,0,*69
1507187034.74,56462,12.69,73140.3,-0.81,-1.51,-1.55,0,*6E
1507187035.95,56463,12.69,73142.5,-0.79,-1.55,-1.63,0,*69
1507187037.17,56464,12.69,73148.0,-0.79,-1.63,-1.63,0,*6B
1507187038.36,56465,12.69,73148.8,-0.77,-1.75,-1.67,0,*67
1507187039.57,56466,12.69,73142.3,-0.75,-1.63,-1.63,0,*65
1507187040.76,56467,12.69,73140.5,-0.77,-1.55,-1.63,0,*63
1507187041.95,56468,12.69,73132.8,-0.77,-1.75,-1.75,0,*69
1507187043.16,56469,12.69,73130.5,-0.75,-1.63,-1.63,0,*6A
1507187044.35,56470,12.69,73128.3,-0.77,-1.55,-1.63,0,*65
1507187045.59,56471,12.69,73134.8,-0.75,-1.59,-1.83,0,*64
1507187046.83,56472,12.69,73132.3,-0.75,-1.75,-1.99,0,*62
1507187048.08,56473,12.69,73134.8,-0.75,-1.75,-1.99,0,*63
1507187049.29,56474,12.69,73128.0,-0.75,-2.19,-2.31,0,*6C
1507187050.54,56475,12.69,73136.8,-0.75,-2.11,-2.31,0,*65
1507187051.76,56476,12.69,73142.8,-0.75,-2.19,-2.35,0,*6A
1507187053.03,56477,12.69,73148.5,-0.75,-2.51,-2.71,0,*67
1507187054.21,56478,12.69,73140.5,-0.73,-2.83,-2.95,0,*6B
1507187055.43,56479,12.69,73142.8,-0.75,-2.83,-2.99,0,*60
1507187056.61,56480,12.69,73128.8,-0.77,-2.91,-3.19,0,*6E
1507187057.82,56481,12.69,73138.8,-0.77,-3.03,-3.51,0,*69
1507187059.03,56482,12.69,73140.0,-0.77,-3.11,-3.55,0,*6D
1507187060.23,56483,12.69,73144.0,-0.77,-3.11,-3.55,0,*6C
1507187061.47,56484,12.69,73142.5,-0.79,-2.75,-3.15,0,*62
1507187062.71,56485,12.69,73144.0,-0.79,-2.75,-3.11,0,*67
1507187063.95,56486,12.69,73158.0,-0.79,-2.55,-2.87,0,*68
1507187065.19,56487,12.69,73148.0,-0.79,-2.63,-2.79,0,*6D
1507187066.46,56488,12.69,73142.3,-0.79,-2.11,-2.03,0,*6A
1507187067.68,56489,12.69,73138.5,-0.79,-1.63,-1.55,0,*6D
1507187068.89,56490,12.69,73130.3,-0.75,-1.63,-1.51,0,*6D
1507187070.13,56491,12.69,73140.3,-0.75,-1.51,-1.35,0,*6F
1507187071.34,56492,12.69,73146.3,-0.73,-1.59,-1.47,0,*67
1507187072.58,56493,12.69,73130.0,-0.71,-1.71,-1.43,0,*6A
1507187073.85,56494,12.69,73132.8,-0.71,-1.83,-1.47,0,*64
1507187075.12,56495,12.69,73134.8,-0.67,-1.87,-1.35,0,*63
1507187076.33,56496,12.69,73146.3,-0.67,-1.75,-1.29,0,*60
1507187077.6,56497,12.69,73116.0,-0.67,-1.87,-1.39,0,*6D
1507187078.87,56498,12.69,73088.3,-0.67,-1.91,-1.39,0,*65
1507187080.08,56499,12.69,73088.0,-0.67,-2.15,-1.51,0,*65
1507187081.32,56500,12.69,73078.8,-0.63,-1.75,-1.01,0,*60
1507187082.53,56501,12.69,73074.8,-0.61,-2.39,-1.83,0,*62
1507187083.77,56502,12.69,73120.3,-0.63,-2.11,-1.59,0,*6E
1507187084.98,56503,12.69,73138.8,-0.61,-1.59,-1.09,0,*67
1507187086.21,56504,12.69,73128.0,-0.61,-1.35,-1.09,0,*6A
1507187087.47,56505,12.69,73142.5,-0.63,-1.35,-1.13,0,*62
1507187088.68,56506,12.69,73134.5,-0.61,-1.35,-1.25,0,*66
1507187089.91,56507,12.69,73146.5,-0.59,-1.33,-1.21,0,*6E
1507187091.18,56508,12.69,73144.5,-0.59,-1.35,-1.35,0,*62
1507187092.39,56509,12.69,73150.3,-0.59,-1.67,-1.59,0,*6E
1507187093.6,56510,12.69,73156.3,-0.57,-1.83,-1.59,0,*62
1507187094.84,56511,12.69,73160.3,-0.59,-1.91,-1.59,0,*6E
1507187096.03,56512,12.69,73158.0,-0.57,-1.79,-1.55,0,*69
1507187097.28,56513,12.69,73162.5,-0.59,-1.71,-1.47,0,*6D
1507187098.5,56514,12.69,73168.0,-0.57,-1.71,-1.47,0,*64
1507187099.71,56515,12.69,73170.8,-0.55,-1.75,-1.55,0,*60
1507187100.92,56516,12.69,73172.0,-0.53,-1.67,-1.43,0,*61
1507187102.16,56517,12.69,73168.5,-0.55,-1.55,-1.39,0,*6A
1507187103.37,56518,12.69,73164.3,-0.53,-1.63,-1.39,0,*66
1507187104.56,56519,12.69,73166.3,-0.53,-1.79,-1.63,0,*63
1507187105.75,56520,12.69,73164.3,-0.53,-1.67,-1.55,0,*63
1507187106.96,56521,12.69,73166.0,-0.53,-1.67,-1.43,0,*65
1507187108.17,56522,12.69,73164.8,-0.53,-1.63,-1.39,0,*6F
1507187109.37,56523,12.69,73160.0,-0.53,-1.79,-1.67,0,*6E
1507187110.58,56524,12.69,73164.3,-0.51,-1.75,-1.63,0,*63
1507187111.8,56525,12.69,73170.0,-0.51,-1.75,-1.63,0,*62
1507187113.04,56526,12.69,73170.3,-0.51,-1.83,-1.71,0,*6B
1507187114.29,56527,12.69,73168.3,-0.51,-1.83,-1.71,0,*6A
1507187115.51,56528,12.69,73170.3,-0.51,-1.75,-1.71,0,*6C
1507187116.78,56529,12.69,73170.8,-0.51,-1.83,-1.83,0,*69
1507187118.0,56530,12.69,73168.3,-0.51,-2.27,-2.35,0,*62
1507187119.27,56531,12.69,73172.3,-0.51,-2.75,-2.63,0,*67
1507187120.51,56532,12.69,73172.3,-0.49,-2.59,-2.59,0,*6A
1507187121.78,56533,12.69,73160.0,-0.51,-2.47,-2.51,0,*65
1507187123.0,56534,12.69,73158.5,-0.51,-2.23,-2.15,0,*60
1507187124.21,56535,12.69,73156.0,-0.51,-2.27,-2.27,0,*64
1507187125.4,56536,12.69,73156.8,-0.49,-2.35,-2.35,0,*6E
1507187126.62,56537,12.69,73162.5,-0.51,-2.15,-2.35,0,*64
1507187127.89,56538,12.69,73178.3,-0.51,-2.47,-2.63,0,*6F
1507187129.11,56539,12.69,73184.3,-0.49,-2.63,-2.91,0,*6C
1507187130.33,56540,12.69,73180.3,-0.51,-3.03,-3.27,0,*60
1507187131.57,56541,12.69,73176.5,-0.51,-3.63,-3.91,0,*6A
1507187132.82,56542,12.69,73180.3,-0.51,-3.47,-3.35,0,*61
1507187134.01,56543,12.69,73182.5,-0.49,-3.27,-3.03,0,*6A
1507187135.26,56544,12.69,73176.8,-0.51,-3.47,-3.27,0,*64
1507187136.5,56545,12.69,73174.3,-0.51,-3.47,-3.15,0,*64
1507187137.74,56546,12.69,73168.3,-0.51,-3.47,-2.91,0,*6A
1507187138.96,56547,12.69,73168.0,-0.49,-3.47,-2.87,0,*65
1507187140.23,56548,12.69,73162.0,-0.51,-2.71,-1.99,0,*6B
1507187141.45,56549,12.69,73160.0,-0.49,-2.15,-1.35,0,*67
1507187142.7,56550,12.69,73158.5,-0.49,-3.47,-2.71,0,*6A
1507187143.89,56551,12.69,73156.8,-0.49,-2.91,-2.15,0,*63
1507187145.08,56552,12.69,73152.3,-0.49,-2.35,-1.59,0,*65
1507187146.33,56553,12.69,73148.3,-0.49,-1.99,-1.39,0,*67
1507187147.57,56554,12.69,73136.0,-0.47,-1.83,-1.33,0,*6F
1507187148.78,56555,12.69,73130.8,-0.45,-2.23,-1.83,0,*6E
1507187150.0,56556,12.69,73120.3,-0.47,-1.71,-1.25,0,*67
1507187151.21,56557,12.69,73110.5,-0.45,-1.79,-1.05,0,*6E
1507187152.48,56558,12.69,73108.0,-0.39,-1.99,-1.35,0,*67
1507187153.72,56559,12.69,73098.5,-0.43,-1.91,-1.33,0,*65
1507187154.93,56560,12.69,73116.3,-0.39,-2.15,-1.63,0,*68
1507187156.17,56561,12.69,73076.8,-0.43,-2.31,-1.91,0,*6F
1507187157.42,56562,12.69,73080.5,-0.39,-3.03,-2.51,0,*6E
1507187158.64,56563,12.69,73078.8,-0.39,-3.03,-2.39,0,*61
1507187159.85,56564,12.69,73088.3,-0.39,-3.87,-3.27,0,*64
1507187161.12,56565,12.69,73104.3,-0.43,-3.55,-2.75,0,*61
1507187162.34,56566,12.69,73126.8,-0.43,-3.15,-2.31,0,*66
1507187163.58,56567,12.69,73172.8,-0.43,-3.07,-2.07,0,*61
1507187164.82,56568,12.69,73112.5,-0.43,-2.75,-1.75,0,*6C
1507187166.09,56569,12.69,73092.5,-0.39,-2.63,-1.87,0,*6A
1507187167.34,56570,12.69,73122.0,-0.39,-2.63,-1.75,0,*6F
1507187168.58,56571,12.69,73082.0,-0.39,-2.79,-2.11,0,*64
1507187169.83,56572,12.69,73082.0,-0.37,-3.47,-2.63,0,*60
1507187171.07,56573,12.69,73088.3,-0.37,-3.51,-2.63,0,*66
1507187172.29,56574,12.69,73100.0,-0.37,-3.39,-2.55,0,*6A
1507187173.54,56575,12.69,73112.5,-0.37,-3.59,-2.63,0,*68
1507187174.79,56576,12.69,73136.0,-0.37,-3.47,-2.51,0,*65
1507187176.06,56577,12.69,73128.0,-0.39,-3.51,-2.47,0,*6A
1507187177.32,56578,12.69,73124.3,-0.39,-3.91,-2.71,0,*6C
1507187178.59,56579,12.69,73118.3,-0.39,-4.01,-2.71,0,*63
1507187179.79,56580,12.69,73132.5,-0.37,-4.25,-3.03,0,*69
1507187181.03,56581,12.69,73124.3,-0.37,-3.51,-2.51,0,*6A
1507187182.28,56582,12.69,73120.5,-0.37,-3.47,-2.47,0,*69
1507187183.5,56583,12.69,73130.0,-0.37,-3.47,-2.35,0,*6D
1507187184.71,56584,12.69,73126.5,-0.37,-3.59,-2.27,0,*66
1507187185.94,56585,12.69,73134.5,-0.37,-3.59,-2.23,0,*63
1507187187.21,56586,12.69,73144.8,-0.35,-3.63,-2.11,0,*6A
1507187188.48,56587,12.69,73150.8,-0.35,-3.59,-1.99,0,*61
1507187189.73,56588,12.69,73140.3,-0.35,-3.31,-1.83,0,*6B
1507187190.92,56589,12.69,73136.5,-0.37,-3.15,-1.75,0,*67
1507187192.14,56590,12.69,73140.5,-0.35,-3.19,-1.71,0,*65
1507187193.36,56591,12.69,73148.5,-0.35,-3.19,-1.55,0,*62
1507187194.57,56592,12.69,73148.5,-0.35,-3.23,-1.55,0,*68
1507187195.79,56593,12.69,73150.3,-0.31,-3.31,-1.63,0,*6B
1507187197.01,56594,12.69,73162.0,-0.33,-3.23,-1.43,0,*6F
1507187198.22,56595,12.69,73166.3,-0.33,-2.87,-1.13,0,*64
1507187199.49,56596,12.69,73166.0,-0.31,-2.71,-1.05,0,*6B
1507187200.76,56597,12.69,73174.0,-0.31,-2.63,-1.05,0,*69
1507187202.0,56598,12.69,73178.0,-0.31,-2.55,-1.17,0,*60
1507187203.21,56599,12.69,73172.3,-0.31,-2.15,-1.17,0,*65
1507187204.4,56600,12.69,73168.5,-0.33,-1.59,-0.73,0,*5C
1507187205.64,56601,12.69,73154.5,-0.31,-1.39,-0.69,0,*52
1507187206.87,56602,12.69,73124.0,-0.31,-1.63,-0.93,0,*5B
1507187208.13,56603,12.69,73128.0,-0.31,-1.91,-1.43,0,*6B
1507187209.38,56604,12.69,73114.8,-0.33,-1.91,-1.35,0,*6F
1507187210.59,56605,12.69,73114.0,-0.33,-1.67,-1.13,0,*63
1507187211.79,56606,12.69,73108.8,-0.33,-1.59,-1.13,0,*6D
1507187213.01,56607,12.69,73130.0,-0.33,-1.33,-0.85,0,*5E
1507187214.24,56608,12.69,73128.8,-0.31,-1.51,-1.09,0,*62
1507187215.48,56609,12.69,73112.8,-0.33,-1.35,-1.09,0,*63
1507187216.7,56610,12.69,73116.8,-0.31,-1.55,-1.21,0,*65
1507187217.94,56611,12.69,73112.8,-0.33,-1.43,-1.13,0,*60
1507187219.15,56612,12.69,73120.5,-0.31,-1.51,-1.21,0,*63
1507187220.36,56613,12.69,73106.0,-0.31,-1.55,-1.29,0,*6E
1507187221.55,56614,12.69,73108.3,-0.33,-1.67,-1.33,0,*61
1507187222.79,56615,12.69,73114.3,-0.33,-1.35,-1.13,0,*65
1507187224.01,56616,12.69,73120.8,-0.33,-1.39,-1.21,0,*6B
1507187225.23,56617,12.69,73114.0,-0.33,-1.55,-1.47,0,*60
1507187226.45,56618,12.69,73108.3,-0.31,-1.67,-1.51,0,*6B
1507187227.65,56619,12.69,73104.0,-0.33,-1.71,-1.67,0,*6A
1507187228.86,56620,12.69,73096.8,-0.31,-1.75,-1.75,0,*65
1507187230.06,56621,12.69,73102.5,-0.33,-1.67,-1.71,0,*61
1507187231.26,56622,12.69,73100.0,-0.33,-1.33,-1.33,0,*65
1507187232.45,56623,12.69,73122.8,-0.33,-1.25,-1.21,0,*60
1507187233.64,56624,12.69,73130.5,-0.33,-0.81,-0.81,0,*63
1507187234.82,56625,12.69,73120.5,-0.33,-0.29,-0.29,0,*62
1507187236.03,56626,12.69,73122.3,-0.31,-0.41,-0.57,0,*64
1507187237.23,56627,12.69,73130.5,-0.29,-0.73,-0.89,0,*6E
1507187238.48,56628,12.69,73116.0,-0.29,-1.01,-1.05,0,*60
1507187239.7,56629,12.69,73122.5,-0.29,-1.29,-1.39,0,*64
1507187240.93,56630,12.69,73122.3,-0.29,-1.29,-1.39,0,*6C
1507187242.12,56631,12.69,73122.0,-0.29,-1.29,-1.29,0,*6C
1507187243.37,56632,12.69,73116.0,-0.29,-1.35,-1.39,0,*63
1507187244.56,56633,12.69,73118.5,-0.29,-1.63,-1.75,0,*69
1507187245.81,56634,12.69,73126.3,-0.29,-1.99,-2.03,0,*69
1507187247.02,56635,12.69,73124.0,-0.33,-1.79,-1.91,0,*65
1507187248.22,56636,12.69,73132.0,-0.29,-1.71,-1.75,0,*6F
1507187249.46,56637,12.69,73132.8,-0.31,-1.79,-1.95,0,*61
1507187250.68,56638,12.69,73132.0,-0.33,-1.71,-1.83,0,*63
1507187251.89,56639,12.69,73140.5,-0.31,-1.67,-1.79,0,*62
1507187253.13,56640,12.69,73138.3,-0.31,-1.75,-1.87,0,*6E
1507187254.33,56641,12.69,73142.5,-0.29,-1.71,-1.75,0,*6F
1507187255.55,56642,12.69,73148.0,-0.31,-1.79,-1.79,0,*61
1507187256.79,56643,12.69,73152.0,-0.33,-1.95,-1.91,0,*66
1507187258.06,56644,12.69,73166.8,-0.31,-1.91,-1.87,0,*60
1507187259.3,56645,12.69,73166.8,-0.29,-1.91,-1.87,0,*68
1507187260.54,56646,12.69,73164.3,-0.29,-2.11,-2.03,0,*6F
1507187261.76,56647,12.69,73168.3,-0.31,-2.31,-2.19,0,*6E
1507187263.01,56648,12.69,73178.3,-0.31,-2.19,-2.07,0,*64
1507187264.24,56649,12.69,73174.5,-0.31,-1.95,-1.79,0,*68
1507187265.48,56650,12.69,73178.3,-0.31,-1.91,-1.79,0,*64
1507187266.75,56651,12.69,73182.3,-0.31,-2.03,-1.91,0,*6B
1507187267.95,56652,12.69,73180.0,-0.33,-2.31,-2.19,0,*68
1507187269.16,56653,12.69,73180.5,-0.33,-2.59,-2.43,0,*68
1507187270.4,56654,12.69,73176.0,-0.33,-2.67,-2.55,0,*65
1507187271.65,56655,12.69,73176.5,-0.33,-2.67,-2.59,0,*68
1507187272.86,56656,12.69,73174.5,-0.33,-2.67,-2.35,0,*61
1507187274.07,56657,12.69,73178.3,-0.33,-2.59,-2.43,0,*6C
1507187275.29,56658,12.69,73178.5,-0.33,-2.59,-2.43,0,*63
1507187276.56,56659,12.69,73176.3,-0.35,-2.75,-2.47,0,*6E
1507187277.8,56660,12.69,73176.5,-0.35,-2.67,-2.31,0,*66
1507187279.04,56661,12.69,73174.3,-0.35,-2.67,-2.35,0,*63
1507187280.28,56662,12.69,73176.5,-0.37,-2.75,-2.47,0,*64
1507187281.5,56663,12.69,73180.0,-0.37,-2.71,-2.35,0,*64
1507187282.71,56664,12.69,73182.8,-0.37,-2.75,-2.35,0,*67
1507187283.93,56665,12.69,73178.0,-0.37,-2.79,-2.47,0,*6F
1507187285.15,56666,12.69,73180.8,-0.37,-2.71,-2.27,0,*62
1507187286.39,56667,12.69,73180.8,-0.39,-2.71,-2.15,0,*6C
1507187287.62,56668,12.69,73180.3,-0.43,-2.43,-1.91,0,*60
1507187288.89,56669,12.69,73184.3,-0.39,-2.51,-1.83,0,*6C
1507187290.14,56670,12.69,73180.3,-0.39,-2.47,-1.75,0,*6A
1507187291.35,56671,12.69,73184.8,-0.43,-2.15,-1.51,0,*67
1507187292.59,56672,12.69,73184.3,-0.39,-2.23,-1.39,0,*62
1507187293.82,56673,12.69,73184.8,-0.39,-1.95,-1.25,0,*60
1507187295.04,56674,12.69,73178.0,-0.39,-1.71,-1.17,0,*6C
1507187296.28,56675,12.69,73174.3,-0.39,-1.01,-0.61,0,*5A
1507187297.48,56676,12.69,73170.3,-0.39,-0.11,0.09,0,*7A
1507187298.7,56677,12.69,73166.0,-0.35,0.29,0.43,0,*6F
1507187299.89,56678,12.69,73158.5,-0.35,0.05,0.05,0,*6C
1507187301.08,56679,12.69,73144.0,-0.33,-0.73,-0.81,0,*66
1507187302.35,56680,12.69,73132.5,-0.31,-1.05,-1.05,0,*6F
1507187303.59,56681,12.69,73152.5,-0.31,-1.09,-1.17,0,*61
1507187304.83,56682,12.69,73148.8,-0.31,-1.33,-1.43,0,*6A
1507187306.02,56683,12.69,73152.0,-0.29,-1.51,-1.59,0,*6D
1507187307.27,56684,12.69,73144.8,-0.29,-1.87,-1.99,0,*6D